Wetbulb
58.15 58.20 58.63 59.37 59.39 59.65 59.96 61.06 63.33 66.16 65.94 65.76 67.03 69.53 70.21 71.59 72.38 72.13 71.76 73.41 73.20 73.61 73.41 73.88 74.72 74.93 75.08 74.76 74.54 74.19 74.11 74.49 74.36 73.81 73.66 73.87 74.01 73.89 73.83 73.61 73.43 73.35 73.10
56.91 56.76 57.03 57.21 57.53 57.58 57.90 58.73 60.24 61.76 64.97 66.18 65.76 67.10 68.96 69.93 70.74 71.17 73.05 72.93 72.43 72.84 73.32 73.54 73.88 74.75 74.91 75.04 74.61 74.54 73.82 73.87 74.24 73.86 73.59 73.51 73.67 73.88 74.07 74.03 73.53 73.33 72.97
55.38 55.97 55.94 55.83 56.94 57.27 55.12 55.93 58.32 59.78 61.76 65.72 66.48 67.59 67.77 68.23 68.72 69.46 70.23 70.79 70.65 70.75 71.23 72.33 73.02 73.49 74.41 74.88 75.16 74.86 74.02 73.77 73.79 73.79 73.51 73.29 73.26 73.49 73.71 74.02 74.00 73.57 72.97
54.30 54.10 54.29 55.10 56.50 56.54 54.46 54.27 54.54 54.53 55.97 58.88 63.65 66.03 67.00 67.13 65.14 66.09 67.35 67.84 67.87 68.75 70.57 70.95 72.23 72.77 72.75 74.24 75.05 74.98 73.99 73.42 73.39 73.28 73.47 73.30 73.28 73.20 73.37 73.50 73.69 73.69 73.09
53.16 52.86 52.73 54.44 56.13 55.04 53.52 54.31 54.17 55.08 54.88 56.45 58.14 62.33 64.31 65.12 66.36 65.76 65.87 65.92 66.10 68.37 69.31 70.58 70.22 71.39 72.43 72.21 73.21 73.96 74.21 73.32 72.91 72.82 72.98 73.42 73.40 73.49 73.30 73.34 73.45 73.33 73.13
52.44 52.16 51.99 53.49 54.72 53.80 53.18 53.45 53.72 55.01 55.76 56.22 57.28 59.23 61.80 63.17 64.17 65.55 66.31 66.69 66.74 66.52 67.82 68.94 70.45 69.31 70.86 71.66 72.30 72.66 72.72 73.05 73.22 72.85 72.67 72.53 72.75 73.17 73.29 73.31 73.01 73.01 72.79
52.02 51.81 51.11 52.02 51.56 51.63 51.98 53.13 52.73 52.58 55.04 57.08 57.00 57.99 60.65 62.27 62.74 63.14 65.10 66.27 66.21 66.33 66.83 66.99 68.64 70.43 69.21 70.16 71.11 71.06 71.92 72.83 73.67 73.29 72.89 72.32 72.41 72.84 72.89 72.97 72.81 72.49 72.38
50.62 49.36 51.12 48.54 49.79 49.94 50.60 51.00 50.94 51.09 51.99 55.60 54.76 55.33 53.84 57.20 61.67 63.34 64.01 64.09 65.17 66.68 65.76 66.05 67.57 67.93 69.79 68.86 68.01 69.22 70.18 70.91 72.49 72.82 72.43 71.97 72.01 72.73 72.86 72.50 72.69 72.41 71.92
49.59 49.02 49.45 48.55 48.70 49.15 48.25 48.88 50.05 49.80 48.99 51.84 53.19 55.53 52.43 53.67 58.52 62.85 62.92 62.95 62.56 63.24 62.71 62.69 63.17 65.23 67.60 68.56 67.59 68.83 69.05 69.64 70.97 72.17 72.50 72.20 72.40 72.47 72.28 71.92 71.92 71.47 71.60
50.38 49.00 48.98 49.14 48.44 48.30 48.33 49.25 50.07 50.10 49.57 48.32 50.37 54.20 56.17 57.40 53.63 54.02 61.04 61.23 61.24 60.64 61.29 63.29 63.06 63.65 65.07 66.73 67.23 67.64 67.28 68.01 69.02 69.64 70.41 71.25 71.86 71.88 71.55 71.01 70.68 70.34 70.35
49.98 49.38 48.55 48.81 48.58 48.03 49.93 49.63 49.21 50.27 49.65 48.56 48.09 48.99 51.65 55.61 58.93 56.59 54.57 58.46 59.49 60.02 60.24 60.78 61.50 62.70 63.44 65.19 66.90 67.55 65.59 65.87 66.89 67.57 68.23 69.46 69.93 70.58 70.92 70.88 70.80 70.53 70.53
48.05 48.89 47.96 48.17 48.30 48.23 49.01 48.94 49.09 49.12 48.82 48.73 48.47 48.02 48.17 48.67 50.74 52.55 52.45 54.72 55.53 58.69 59.31 59.56 59.44 59.22 60.19 62.14 65.35 65.47 65.08 64.65 64.67 65.12 66.28 67.18 68.01 68.65 69.23 70.44 70.55 71.21 71.25
46.75 47.47 46.95 47.12 46.90 47.96 48.35 49.31 49.32 48.78 48.36 47.78 47.52 46.97 47.73 47.08 49.34 50.18 51.98 52.43 53.45 57.43 58.15 58.43 56.97 56.81 57.87 59.14 64.13 64.77 63.67 62.92 62.66 62.84 63.65 64.73 65.63 65.76 66.63 67.53 67.42 67.69 69.89
48.20 48.12 47.58 47.23 47.28 47.82 48.04 48.94 48.90 48.79 48.74 48.55 47.99 47.46 47.79 47.39 47.93 48.67 49.50 49.56 50.94 54.37 56.62 55.07 55.51 54.76 55.18 57.41 60.90 60.93 60.41 60.13 59.51 59.39 59.49 60.27 61.25 61.70 61.85 62.42 63.57 64.83 65.61
49.33 50.11 48.77 47.78 48.11 48.17 48.58 48.70 49.64 49.76 50.77 50.27 50.39 50.18 49.14 48.16 48.49 48.63 49.87 49.99 49.81 50.62 54.66 54.75 52.66 53.39 53.48 55.35 57.74 57.20 57.81 58.50 57.90 57.09 57.03 57.18 57.68 57.93 58.25 58.46 58.93 59.27 59.86
49.75 50.01 50.35 49.12 48.79 48.65 48.45 48.29 48.32 50.47 49.76 50.14 50.27 50.49 49.20 48.79 48.59 49.30 49.29 49.86 50.24 50.13 49.88 54.10 49.45 50.67 52.58 54.02 55.57 55.47 55.53 56.02 56.02 55.66 55.41 54.90 54.80 55.23 55.50 55.91 56.28 56.49 56.99
50.28 49.72 50.53 49.74 49.16 50.27 49.78 48.84 48.99 48.68 50.12 49.91 49.83 48.54 48.54 48.96 49.11 48.71 51.31 51.13 50.56 50.12 49.54 50.03 49.98 51.23 51.25 51.02 51.75 52.78 53.73 53.96 53.34 53.98 53.24 52.79 52.27 52.15 51.98 52.15 52.42 52.99 53.32
50.65 50.40 50.44 50.59 50.58 50.10 50.23 48.65 48.47 49.42 49.26 48.24 48.46 48.22 49.18 50.53 50.18 49.43 49.59 49.42 49.99 50.70 50.85 47.46 48.57 49.08 50.62 51.42 50.88 50.86 51.47 52.96 51.93 53.25 52.57 51.99 51.31 50.52 50.36 49.95 49.69 49.53 49.46
52.21 52.02 51.36 50.70 51.08 49.48 48.53 47.33 47.15 49.41 49.46 47.64 46.44 49.36 49.39 49.88 49.60 48.77 48.35 49.26 49.38 50.68 51.31 48.43 46.67 48.97 49.85 50.30 50.29 50.52 49.66 49.48 51.27 52.25 52.03 51.68 51.14 50.65 49.94 49.24 48.46 47.77 47.08
50.67 51.57 51.36 50.01 51.30 50.03 50.58 50.37 47.36 48.65 49.69 48.81 46.58 47.94 49.94 49.77 49.36 50.56 47.82 48.49 48.13 49.39 48.16 47.06 46.99 47.43 48.69 49.16 50.86 47.71 46.23 48.24 47.64 48.38 49.96 49.64 49.89 50.18 49.73 49.39 48.98 47.85 46.82
49.80 50.57 51.00 51.99 49.59 49.95 48.27 49.14 48.98 47.74 48.34 49.07 46.48 46.56 48.97 50.20 49.93 50.58 49.06 48.42 47.21 47.43 46.72 46.14 45.63 46.76 46.79 46.78 47.64 48.78 45.66 46.34 46.67 47.19 46.65 47.35 48.60 48.40 47.20 48.28 48.52 47.99 47.29
51.74 51.48 51.06 50.33 49.76 49.41 47.15 47.74 48.71 47.93 48.72 47.28 47.28 46.80 48.83 49.67 49.84 48.53 49.58 50.02 49.45 46.58 46.41 45.89 45.22 45.10 45.62 46.69 47.55 47.10 46.09 45.21 42.89 48.97 47.26 46.12 48.48 46.98 46.71 47.28 47.03 46.94 47.49
50.21 50.22 51.09 51.12 50.62 50.09 45.84 45.78 47.77 48.38 47.39 47.11 47.36 47.09 46.63 48.46 49.91 50.61 49.29 48.58 48.51 48.34 48.53 48.11 46.69 46.45 46.01 49.91 50.56 48.01 48.74 48.91 46.17 47.78 49.46 46.19 49.00 47.01 47.31 47.51 46.30 46.19 46.09
48.58 48.49 48.55 50.36 50.85 49.97 44.95 44.38 46.22 49.02 48.75 48.25 47.55 48.51 47.70 48.15 47.24 48.77 49.46 48.35 47.37 48.55 48.18 50.85 51.24 50.61 50.46 50.37 50.26 49.57 50.30 48.33 47.86 48.60 50.54 43.43 46.17 45.29 47.14 46.95 46.00 45.26 44.92
47.94 47.36 48.48 48.75 48.81 49.35 44.38 43.64 46.35 51.14 47.98 47.68 47.71 48.38 48.80 48.14 44.57 45.19 49.71 47.97 46.98 45.97 47.33 46.48 45.98 45.30 45.12 45.91 48.88 50.11 48.20 49.21 46.38 45.66 48.22 46.64 46.12 44.18 44.41 44.26 45.42 44.72 44.09
46.88 47.60 48.03 48.61 47.64 49.13 44.81 43.10 44.24 48.40 49.58 47.77 48.90 48.72 46.35 45.02 43.61 43.61 46.58 48.87 45.41 46.61 48.43 46.76 46.72 46.58 47.68 48.31 48.37 50.87 50.59 48.88 45.83 46.84 50.74 48.69 45.57 44.90 40.43 44.04 44.31 45.69 46.66
MSLP
1018.74 1018.34 1017.96 1017.63 1017.38 1017.04 1016.65 1016.13 1015.56 1014.83 1014.57 1014.07 1014.16 1013.34 1013.21 1012.92 1012.75 1012.46 1012.38 1012.82 1013.43 1013.87 1014.11 1014.31 1014.52 1014.64 1014.54 1014.74 1014.91 1015.21 1015.34 1015.55 1015.81 1016.27 1016.68 1016.99 1017.35 1017.75 1018.18 1018.52 1018.84 1019.33 1019.70
1019.43 1018.74 1018.19 1017.90 1017.53 1017.35 1016.89 1016.26 1015.74 1015.26 1014.49 1014.27 1013.97 1013.70 1012.77 1012.21 1012.37 1012.52 1012.58 1012.36 1012.81 1013.20 1013.40 1013.60 1013.74 1013.98 1013.97 1013.90 1014.14 1014.40 1014.70 1014.88 1014.99 1015.34 1015.78 1016.09 1016.47 1016.96 1017.31 1017.69 1018.07 1018.51 1018.91
1019.62 1019.24 1018.54 1018.17 1017.57 1017.39 1017.44 1016.84 1015.96 1015.19 1014.69 1014.04 1013.67 1013.39 1012.77 1012.16 1012.02 1012.03 1012.30 1012.34 1012.49 1012.86 1012.94 1012.95 1013.00 1013.11 1013.16 1013.04 1013.18 1013.46 1013.80 1014.10 1014.31 1014.61 1014.96 1015.17 1015.64 1016.06 1016.43 1016.81 1017.15 1017.53 1017.93
1020.11 1019.35 1018.52 1018.04 1017.81 1017.36 1017.22 1016.75 1016.24 1015.80 1015.24 1014.56 1013.49 1012.80 1012.42 1012.16 1012.08 1011.89 1012.46 1012.20 1011.94 1012.12 1012.26 1012.17 1012.29 1012.36 1012.47 1012.55 1012.38 1012.57 1012.88 1013.29 1013.47 1013.87 1014.24 1014.58 1014.89 1015.28 1015.66 1015.98 1016.28 1016.67 1017.10
1020.45 1019.97 1019.07 1018.27 1017.84 1017.25 1017.09 1016.78 1016.19 1015.67 1015.00 1014.30 1013.74 1012.51 1011.91 1011.67 1011.41 1011.59 1011.91 1011.51 1010.95 1011.52 1012.22 1011.69 1011.79 1011.71 1011.76 1011.85 1011.87 1012.05 1012.27 1012.52 1012.65 1012.99 1013.35 1013.77 1014.10 1014.40 1014.73 1015.14 1015.55 1015.75 1016.15
1020.49 1020.07 1019.33 1018.77 1017.97 1017.32 1017.06 1016.82 1016.36 1015.63 1014.94 1014.05 1013.35 1012.60 1011.99 1011.54 1011.25 1010.97 1010.84 1010.69 1010.66 1011.18 1011.47 1011.38 1011.24 1011.16 1011.20 1011.42 1011.50 1011.58 1011.88 1011.79 1011.90 1012.19 1012.60 1012.80 1013.14 1013.48 1013.85 1014.26 1014.59 1014.94 1015.23
1020.74 1020.22 1019.58 1019.03 1018.73 1018.01 1017.44 1016.92 1016.39 1015.66 1014.55 1013.78 1013.09 1012.03 1011.29 1010.86 1010.61 1010.26 1010.09 1010.21 1010.23 1010.52 1010.86 1010.58 1010.81 1010.86 1010.73 1010.72 1011.00 1011.13 1011.46 1011.27 1011.12 1011.44 1011.72 1011.84 1012.16 1012.56 1012.90 1013.25 1013.75 1014.16 1014.44
1020.90 1020.51 1019.91 1019.73 1019.18 1018.48 1017.74 1017.23 1016.67 1015.93 1015.14 1014.30 1013.45 1012.47 1011.21 1009.88 1009.78 1009.72 1009.91 1009.97 1009.94 1009.77 1009.58 1009.19 1010.73 1009.19 1009.96 1010.09 1010.44 1010.86 1011.10 1010.70 1010.64 1010.67 1010.88 1011.13 1011.44 1011.73 1012.08 1012.48 1012.87 1013.22 1013.67
1020.98 1020.69 1020.23 1019.89 1019.37 1018.76 1018.28 1017.76 1017.07 1016.46 1015.60 1014.66 1014.00 1013.01 1011.66 1010.35 1009.99 1009.62 1009.81 1009.86 1009.96 1009.83 1010.03 1010.45 1010.53 1010.19 1009.41 1009.70 1010.14 1010.10 1010.16 1010.35 1010.43 1010.03 1010.13 1010.38 1010.78 1011.02 1011.35 1011.69 1012.02 1012.51 1012.93
1020.96 1020.72 1020.40 1019.81 1019.54 1019.00 1018.48 1017.89 1017.41 1016.76 1016.15 1015.20 1014.02 1013.26 1012.55 1011.67 1011.07 1009.96 1009.90 1010.17 1010.38 1010.52 1010.51 1010.36 1010.20 1009.90 1009.60 1009.39 1009.29 1009.54 1009.64 1009.91 1010.23 1009.74 1009.82 1009.80 1010.19 1010.58 1010.86 1011.13 1011.55 1011.79 1012.08
1021.07 1020.83 1020.43 1019.92 1019.46 1018.99 1018.39 1018.08 1017.55 1016.89 1016.46 1015.81 1015.13 1014.19 1013.11 1012.10 1011.19 1010.89 1010.20 1010.12 1010.43 1010.50 1010.63 1010.42 1010.25 1009.87 1009.42 1009.33 1008.99 1009.09 1009.67 1009.67 1009.33 1009.22 1009.04 1009.75 1009.90 1010.07 1010.33 1010.56 1010.75 1010.92 1011.06
1021.04 1020.86 1020.56 1020.08 1019.62 1019.12 1018.43 1017.90 1017.64 1017.20 1016.67 1016.11 1015.64 1014.96 1014.26 1013.61 1012.66 1011.97 1011.52 1011.00 1010.64 1010.49 1010.50 1010.51 1010.40 1010.33 1010.10 1009.66 1009.10 1009.25 1009.35 1009.35 1009.26 1009.25 1009.34 1009.49 1009.56 1009.67 1009.87 1009.95 1010.15 1010.24 1010.24
1021.34 1021.10 1020.95 1020.40 1019.80 1019.20 1018.66 1017.99 1017.45 1017.09 1016.67 1016.18 1015.76 1015.26 1014.88 1014.38 1013.81 1013.10 1012.47 1011.99 1011.37 1010.65 1010.56 1010.72 1010.93 1010.98 1010.62 1010.01 1009.22 1009.26 1009.54 1009.71 1009.79 1009.70 1009.62 1009.71 1009.71 1009.62 1009.52 1009.63 1010.03 1009.78 1009.51
1021.87 1021.62 1021.16 1020.67 1020.08 1019.39 1018.73 1018.12 1017.54 1016.99 1016.66 1016.17 1015.76 1015.28 1014.97 1014.55 1014.14 1013.83 1013.32 1012.81 1011.91 1011.07 1010.85 1011.15 1011.71 1011.64 1011.45 1011.06 1010.41 1010.16 1010.38 1010.42 1010.35 1010.36 1010.33 1010.35 1010.24 1010.30 1010.20 1010.51 1010.55 1010.21 1010.22
1022.03 1021.40 1021.23 1020.68 1020.10 1019.60 1018.99 1018.35 1017.49 1017.14 1016.47 1015.95 1015.40 1015.12 1014.97 1014.75 1014.36 1013.92 1013.53 1013.21 1012.67 1011.65 1011.00 1011.54 1011.99 1012.41 1012.18 1011.80 1011.38 1011.16 1011.22 1011.21 1011.04 1011.15 1011.23 1011.14 1011.07 1011.04 1011.01 1011.15 1011.33 1011.38 1011.52
1022.24 1021.71 1021.04 1020.69 1020.22 1019.73 1019.30 1018.71 1017.99 1017.22 1016.83 1016.19 1015.71 1015.50 1015.13 1014.64 1014.31 1013.91 1013.51 1013.27 1012.95 1012.50 1011.94 1011.80 1012.80 1013.01 1012.74 1012.37 1012.22 1012.19 1012.23 1012.39 1012.06 1012.07 1011.90 1011.91 1011.91 1011.87 1011.96 1011.88 1012.26 1012.39 1012.62
1022.23 1021.85 1021.26 1020.83 1020.42 1019.84 1019.36 1018.84 1018.23 1017.69 1016.84 1016.42 1016.15 1015.82 1015.16 1014.80 1014.34 1014.04 1013.37 1013.13 1012.84 1012.60 1012.38 1012.78 1013.14 1013.33 1013.23 1013.17 1013.30 1013.16 1013.14 1013.55 1013.28 1013.29 1012.94 1012.78 1012.77 1013.00 1013.14 1013.06 1013.34 1013.27 1013.81
1022.33 1021.93 1021.40 1020.83 1020.27 1020.05 1019.55 1019.10 1018.45 1017.87 1017.26 1016.86 1016.58 1016.09 1015.40 1014.83 1014.42 1014.17 1013.52 1013.18 1012.90 1012.63 1012.57 1012.83 1013.49 1013.73 1013.73 1013.83 1014.01 1014.01 1013.88 1014.33 1014.04 1014.68 1014.16 1013.68 1013.79 1014.17 1014.17 1014.20 1014.31 1014.57 1014.80
1022.22 1021.63 1021.30 1020.96 1020.37 1020.22 1019.95 1019.59 1019.15 1018.29 1017.75 1017.54 1017.18 1016.35 1015.50 1015.12 1014.50 1014.05 1013.66 1013.14 1012.76 1012.37 1012.46 1012.99 1013.59 1014.00 1014.19 1014.21 1014.46 1014.63 1014.78 1014.85 1015.17 1015.03 1015.21 1014.75 1015.02 1014.81 1014.95 1014.99 1015.11 1015.59 1015.68
1022.72 1022.04 1021.60 1021.38 1020.68 1020.44 1019.99 1019.58 1019.39 1018.82 1018.06 1017.70 1017.56 1016.99 1016.00 1015.45 1015.02 1014.27 1014.01 1013.61 1013.12 1012.70 1012.92 1013.45 1013.94 1014.32 1014.62 1014.98 1014.99 1014.70 1015.55 1016.06 1015.83 1015.72 1016.31 1015.98 1015.90 1016.04 1015.45 1015.69 1015.90 1016.12 1016.32
1022.99 1022.53 1021.97 1021.36 1021.23 1020.77 1020.66 1020.05 1019.44 1019.10 1018.55 1017.86 1017.81 1017.42 1016.72 1016.09 1015.67 1014.99 1014.38 1014.07 1013.74 1013.57 1013.73 1014.12 1014.43 1014.79 1014.95 1015.21 1015.11 1015.56 1015.98 1016.33 1016.94 1016.64 1016.99 1016.85 1016.57 1016.24 1016.30 1016.51 1016.64 1016.69 1016.67
1023.01 1022.55 1022.14 1021.80 1021.41 1021.12 1020.89 1020.38 1019.82 1019.28 1018.77 1018.41 1017.98 1017.67 1017.11 1016.46 1015.82 1015.70 1015.23 1014.81 1014.55 1014.48 1014.49 1014.70 1015.02 1015.11 1015.37 1015.45 1015.47 1015.66 1016.12 1016.42 1016.90 1016.75 1016.92 1017.37 1016.88 1016.67 1017.18 1017.19 1017.62 1017.40 1017.27
1023.31 1022.88 1022.32 1021.89 1021.44 1021.27 1021.13 1020.51 1020.05 1019.60 1019.20 1018.84 1018.50 1018.06 1017.60 1017.13 1016.39 1015.90 1015.90 1015.73 1015.49 1015.35 1015.27 1015.23 1015.18 1015.36 1015.55 1015.48 1015.45 1015.76 1015.90 1015.91 1016.67 1016.91 1016.51 1017.24 1016.41 1017.23 1017.42 1017.49 1017.99 1018.04 1017.95
1023.72 1023.25 1022.80 1022.29 1021.68 1021.36 1021.33 1020.74 1020.11 1019.81 1019.36 1019.03 1018.79 1018.34 1017.97 1017.46 1017.27 1016.72 1016.31 1016.18 1016.15 1015.97 1015.98 1015.47 1015.46 1015.59 1015.72 1015.77 1015.79 1015.74 1015.89 1016.46 1016.76 1016.79 1016.52 1016.74 1017.41 1017.64 1017.73 1018.20 1018.46 1018.81 1018.38
1023.89 1023.52 1023.03 1022.57 1022.07 1021.67 1021.59 1021.07 1020.42 1019.50 1019.58 1019.25 1019.00 1018.69 1018.27 1017.92 1017.79 1017.33 1016.59 1016.64 1016.78 1016.87 1016.75 1016.70 1016.59 1016.52 1016.38 1016.15 1015.75 1015.69 1015.93 1015.85 1016.37 1016.77 1016.80 1016.91 1017.57 1018.09 1018.50 1018.72 1018.69 1019.24 1018.82
1024.10 1023.66 1023.13 1022.71 1022.31 1021.85 1021.60 1021.38 1020.89 1020.25 1019.37 1019.35 1019.02 1018.94 1018.90 1018.60 1018.25 1017.88 1017.52 1016.76 1017.06 1017.20 1016.97 1017.01 1016.98 1016.77 1016.59 1016.42 1016.24 1016.01 1015.72 1015.59 1016.01 1016.22 1016.19 1016.39 1017.36 1017.71 1018.47 1018.82 1019.16 1019.02 1018.76
Wind_Speed
9 9 9 8 8 8 9 9 9 6 4 5 12 12 14 15 15 10 9 13 17 19 21 22 21 22 22 22 22 21 21 22 22 23 22 22 22 21 21 21 21 20 19
9 9 9 9 8 9 9 9 10 8 7 7 8 14 14 12 12 12 9 10 12 16 20 22 22 21 22 22 22 22 23 22 22 23 23 23 23 22 23 23 22 22 21
12 11 9 8 8 9 10 9 10 9 9 9 11 11 11 10 10 11 10 8 9 15 18 21 22 22 22 22 22 22 23 23 22 22 23 23 23 23 24 24 24 24 23
13 12 10 9 10 9 8 8 8 9 9 9 10 8 8 8 7 8 10 10 9 10 12 17 21 22 23 22 22 22 22 22 21 21 22 22 23 23 25 25 25 25 24
13 11 10 10 12 8 8 8 8 8 8 9 8 10 9 9 9 7 13 13 11 10 11 15 18 21 20 19 17 18 19 21 20 21 22 23 24 24 25 25 26 25 24
14 12 10 11 11 10 8 8 10 8 9 9 9 8 10 10 9 10 12 10 11 11 12 11 8 11 18 19 18 18 19 18 18 20 22 22 23 24 25 25 26 26 25
13 12 10 11 10 11 11 9 8 10 9 9 8 9 9 9 10 10 10 9 11 10 10 8 7 9 9 15 14 14 19 19 17 18 19 23 24 25 26 25 25 26 24
13 12 12 10 10 9 12 12 10 6 5 8 6 5 5 6 7 6 6 8 11 7 5 1 14 9 10 6 8 14 17 17 21 20 18 21 22 25 25 24 24 25 24
13 12 13 10 10 8 7 9 9 10 5 7 10 6 3 4 4 1 3 2 3 3 4 1 4 5 4 5 8 9 13 12 17 19 18 15 19 21 24 23 23 23 23
12 13 11 11 10 8 9 9 8 8 7 7 7 7 10 7 4 5 2 3 4 2 1 1 0 2 3 4 5 6 4 7 13 9 10 10 15 14 16 19 21 22 20
13 12 11 12 11 8 10 11 9 9 6 5 6 5 7 8 9 5 5 3 3 2 3 4 4 4 5 5 5 3 8 10 9 9 9 13 14 15 18 20 22 22 23
11 12 12 11 10 10 11 10 10 10 9 7 6 5 4 4 4 3 2 4 4 2 3 5 6 6 6 5 6 1 7 8 8 5 2 2 8 12 16 18 19 21 24
10 12 11 10 9 10 10 10 9 8 7 7 8 5 4 4 5 3 3 2 2 0 1 6 6 6 6 6 8 10 13 13 12 11 13 13 14 16 16 10 6 7 13
9 10 10 10 10 11 11 10 7 7 8 7 10 6 6 4 4 4 3 2 2 2 1 3 6 6 6 6 9 18 11 19 20 18 20 21 23 24 27 28 25 21 24
9 10 10 10 10 10 11 12 8 10 10 9 8 8 7 4 4 4 4 3 3 2 2 4 3 7 6 6 12 10 10 20 23 23 22 23 24 25 25 26 25 26 26
10 10 11 10 10 9 10 10 10 10 10 9 8 11 10 6 6 4 3 3 3 2 2 3 6 4 6 7 11 9 13 16 23 22 24 25 25 25 25 26 25 25 24
10 10 10 10 10 11 11 11 10 11 12 11 11 10 9 8 5 6 5 3 3 2 1 4 3 5 7 9 9 9 9 6 12 22 25 26 26 25 25 25 23 23 21
10 10 10 11 10 11 12 12 12 11 12 12 12 11 12 9 8 4 5 3 4 3 2 6 3 3 7 7 8 10 10 8 11 19 23 26 25 24 24 23 23 21 20
11 11 10 10 12 9 7 7 10 11 11 10 10 11 12 10 11 7 7 5 4 3 3 5 6 2 5 4 7 8 9 10 9 17 21 25 23 23 22 22 21 18 17
11 12 11 11 11 11 13 10 7 10 11 10 8 9 12 12 11 11 7 7 6 5 8 7 6 4 5 5 5 8 8 6 8 9 14 16 18 19 22 21 19 17 15
8 9 11 12 10 11 9 12 9 7 10 11 8 10 10 13 16 16 6 8 8 7 7 6 5 4 5 3 5 6 7 5 5 4 6 6 7 9 9 15 14 17 14
9 9 10 10 11 8 15 14 12 8 10 10 10 8 10 13 11 14 17 20 14 7 7 3 2 3 3 4 4 5 6 4 2 1 5 6 4 8 7 9 14 15 13
9 10 11 11 12 12 15 14 12 7 7 8 9 9 9 8 10 8 11 15 16 16 12 4 5 4 2 3 6 5 3 4 3 5 4 6 8 7 7 9 14 15 15
9 8 9 11 11 10 15 14 13 7 7 8 9 10 9 9 10 9 9 9 11 12 11 7 7 5 4 4 4 2 2 5 4 2 3 4 5 6 6 7 13 12 14
8 8 8 10 12 12 13 15 12 8 8 8 7 10 11 10 11 10 6 8 9 7 8 11 11 10 11 8 3 4 5 6 2 1 0 3 3 5 5 5 6 9 12
6 6 7 8 9 11 12 14 12 7 10 7 7 8 11 9 9 9 6 5 7 7 6 7 7 7 8 8 8 3 2 2 4 3 4 2 4 3 3 4 4 4 4
Wind_Direction
1 352 348 343 340 338 332 325 322 303 278 284 294 260 252 245 247 245 240 225 228 233 236 240 237 236 233 232 234 233 229 225 221 222 221 221 221 218 221 223 224 226 224
2 352 348 346 343 341 332 321 317 308 306 243 243 284 255 247 248 246 249 253 240 243 239 242 239 240 239 234 235 235 233 231 225 221 222 222 221 218 219 221 222 223 224
5 351 346 338 341 338 337 331 318 314 306 292 259 230 254 257 256 255 259 257 262 247 250 252 250 240 239 233 231 232 230 227 227 225 223 221 221 218 220 221 221 220 221
7 349 340 337 341 330 334 332 326 316 307 310 297 276 268 253 252 254 261 251 256 272 259 246 248 247 242 241 235 232 228 226 223 225 224 225 222 223 226 224 221 221 222
4 347 337 329 333 330 331 329 325 317 306 300 299 291 283 272 259 239 235 245 242 256 267 260 256 247 243 241 239 233 228 229 226 225 223 223 223 225 225 225 225 219 219
359 351 342 336 332 331 338 332 328 318 307 299 291 296 283 272 262 254 247 234 228 222 247 262 251 251 245 245 250 243 240 231 229 227 225 222 221 224 225 226 224 222 217
2 354 353 348 336 334 333 329 329 323 312 321 297 272 260 262 254 244 245 242 239 228 225 220 233 244 235 235 251 251 254 243 239 232 224 222 220 224 225 224 225 226 222
7 359 353 344 339 327 336 341 331 329 308 325 297 298 273 261 235 234 243 244 247 235 260 239 245 248 243 227 223 248 247 258 254 245 241 231 224 225 225 226 225 223 223
10 4 349 354 345 337 336 328 335 336 319 317 320 284 295 264 324 145 86 74 60 93 90 159 275 297 268 241 237 244 251 255 269 250 248 243 234 230 229 228 227 223 222
355 2 348 351 351 345 343 345 339 331 338 323 328 354 308 260 262 276 126 108 109 95 104 104 291 293 302 284 254 253 285 250 254 263 251 267 255 242 245 233 232 233 235
1 5 347 350 351 348 344 353 346 348 348 326 337 325 324 315 250 265 285 241 131 79 43 22 13 356 350 311 267 251 250 256 270 274 276 258 257 249 247 243 242 241 239
11 9 351 351 352 350 350 352 353 351 353 346 347 345 345 338 349 344 340 339 313 124 68 48 26 8 354 322 280 25 79 77 71 66 77 265 253 256 257 253 253 255 252
12 5 355 350 347 345 344 346 349 356 357 352 347 350 342 347 329 324 302 312 309 275 145 52 35 12 358 355 40 89 83 77 72 73 80 75 76 70 65 60 43 327 273
355 346 345 346 345 344 344 341 341 360 353 353 353 350 341 340 340 332 315 309 285 261 129 97 39 38 11 12 57 72 76 84 83 78 79 80 80 78 75 71 65 66 72
347 349 355 347 347 350 348 346 352 353 352 1 5 6 359 342 329 325 314 300 294 286 184 69 89 35 37 32 58 60 67 84 84 83 81 79 78 78 77 74 69 67 64
348 346 354 352 349 348 351 350 345 352 353 1 7 7 354 349 334 327 312 295 270 286 334 36 51 60 40 62 54 58 69 64 77 83 81 78 74 72 73 75 73 71 71
352 351 349 353 353 353 1 1 1 353 351 0 3 356 356 334 344 329 326 311 271 246 250 76 71 70 64 71 60 54 63 63 69 70 79 79 75 73 71 69 68 72 70
5 359 357 355 9 10 9 8 5 3 1 2 353 354 355 356 354 337 332 331 291 243 220 119 95 83 74 79 87 79 74 62 75 73 65 75 74 74 74 73 68 63 62
6 8 10 6 9 16 358 3 354 8 7 4 351 349 1 2 350 11 358 356 337 282 163 126 119 84 71 62 87 76 62 70 61 65 63 67 69 70 71 69 69 66 63
8 9 19 8 10 16 6 354 359 2 12 24 6 353 6 9 2 19 5 11 2 67 104 110 105 95 88 64 95 93 73 51 60 60 65 65 66 69 69 64 62 60 60
359 0 4 17 15 15 5 0 5 0 4 19 14 2 0 11 16 23 19 25 29 67 83 87 90 114 102 85 94 96 100 90 58 65 67 57 65 58 57 50 57 52 51
2 7 12 8 9 13 355 0 8 7 19 14 11 7 7 13 23 36 38 47 47 42 65 79 54 80 69 100 96 104 127 131 93 252 72 67 83 72 67 66 54 52 53
356 4 9 13 15 19 355 349 357 17 12 14 18 16 12 9 12 29 45 54 48 48 52 65 79 66 99 138 149 143 143 123 118 143 101 65 51 61 59 72 56 53 55
357 353 357 1 10 23 2 352 340 21 9 28 15 19 18 21 14 2 64 49 51 45 33 45 56 65 82 153 193 171 114 106 122 84 16 69 57 66 63 70 63 54 57
360 346 351 3 4 7 9 1 352 358 26 19 20 21 18 22 8 0 37 71 59 41 57 53 59 48 53 51 64 139 153 160 108 47 144 132 135 90 64 55 62 59 60
327 341 356 4 360 5 17 0 4 360 13 9 17 17 45 16 8 16 16 48 66 39 47 48 38 42 45 59 48 14 208 179 144 191 138 137 148 144 90 49 31 39 84